Regional Weather Roundup
Issued by NWS

Home | Current Version | Previous Version | Text Only | Print | Product List | Glossary On
Versions: 1 2 3 4 5 6 7 8 9 10 11 12 13 14 15 16 17 18 19 20 21 22 23 24 25 26 27 28
000
ASUS44 KLIX 201013
RWRLA
LOUISIANA WEATHER ROUNDUP
NATIONAL WEATHER SERVICE NEW ORLEANS LA
400 AM CST FRI JAN 20 2017

NOTE: "FAIR" INDICATES FEW OR NO CLOUDS BELOW 12,000 FEET WITH NO
      SIGNIFICANT WEATHER AND/OR OBSTRUCTIONS TO VISIBILITY.
      SKY/WX - SKY CONDITION AND SIGNIFICANT WEATHER.
      TMP - AIR TEMPERATURE.    DP   - DEWPOINT TEMPERATURE.
      RH  - RELATIVE HUMIDITY.  PRES - PRESSURE.
      HX  - HEAT INDEX.         WCI  - WIND CHILL INDEX.

*  THESE STATIONS ARE NOT NWS OR FAA STATIONS AND ARE NOT UNDER
   NWS QUALITY CONTROL.

LAZ040-048-061>063-065-066-069-201100-
SOUTHEAST LOUISIANA

CITY           SKY/WX    TMP DP  RH WIND       PRES   REMARKS
N.O. AUDUBON   NOT AVBL
N.O. INTL ARPT MOCLDY    64  63  96 S6        29.80F
N.O. LAKEFRONT PTCLDY    64  63  96 S10       29.81S
N.O. DOWNTOWN* NOT AVBL
RESERVE*       CLOUDY    65  63  94 CALM      29.80S
SLIDELL        PTCLDY    63  62  97 S5        29.79F
BATON ROUGE    FOG       63  63 100 S7        29.78F VSB 1
BOOTHVILLE     CLOUDY    65  64  97 S8        29.83F
BELLE CHASSE   CLEAR     64  63  96 CALM      29.80F
BOGALUSA*      CLOUDY    62  59  91 CALM      29.82S VSB 1
GALLIANO*      SUNNY     66  63  90 S3        29.81S
NEW ROADS*     FOG       62  62 100 S6        29.79F VSB 3/4
GONZALES*      PTSUNNY   61  61 100 CALM      29.78F
HAMMOND*       FOG       61  59  94 CALM      29.79F VSB 1/4
HOUMA*         CLOUDY    67  66  97 S3        29.80F
PORT FOURCHON* CLOUDY    68  66  94 S6        29.81S

$$

LAZ041-044-053-054-201100-
SOUTHWEST LOUISIANA

CITY           SKY/WX    TMP DP  RH WIND       PRES   REMARKS
LAKE CHARLES   PTCLDY    64  63  96 SW5       29.77R
LAFAYETTE      FOG       64  64 100 S5        29.77F VSB 1
PATTERSON      NOT AVBL
SALT POINT     NOT AVBL
NEW IBERIA     FOG       60  58  92 S6        29.79S VSB 1/2
CHENAULT AIRPK FOG       56  56 100 CALM      29.77S VSB 1/4

$$

LAZ027-028-201100-
CENTRAL LOUISIANA

CITY           SKY/WX    TMP DP  RH WIND       PRES   REMARKS
FORT POLK      CLOUDY    61  60  97 S9        29.75S
ALEXANDRIA INT CLOUDY    61  60  97 S6        29.74S
ALEXANDRIA     CLOUDY    61  61 100 SW6       29.75F

$$

LAZ001-002-201100-
NORTHWEST LOUISIANA

CITY           SKY/WX    TMP DP  RH WIND       PRES   REMARKS
SHREVEPORT     PTCLDY    59  57  93 SW10      29.69S
BARKSDALE AFB  PTCLDY    58  58  98 S9        29.69S
DTN SHREVEPORT PTCLDY    58  55  90 SW9       29.69R

$$

LAZ014-016-201100-
NORTHEAST LOUISIANA

CITY           SKY/WX    TMP DP  RH WIND       PRES   REMARKS
MONROE         PTCLDY    57  56  96 S5        29.73S
TALLULAH       CLOUDY    57  56  96 VRB3      29.76S

$$





USA.gov is the U.S. government's official web portal to all federal, state and local government web resources and services.